RH
16 16 16 16 37 93 99 79 66 98 89 80 94 100 92 72 76 100 100 79 87 100 100 100 100 100 100 93 50 41 28 24 26 30 34 34 28 25 20 20 30 41 36 23 20
17 16 16 15 17 17 53 90 91 80 98 84 74 70 84 100 90 99 87 100 88 86 98 100 100 100 99 95 62 41 34 41 42 40 34 38 30 18 16 17 27 34 35 22 16
22 22 20 18 15 15 16 18 51 76 68 100 80 54 55 90 85 100 74 68 86 100 93 100 100 100 100 100 84 66 58 58 39 56 58 33 18 17 21 39 60 51 52 67 70
22 19 18 16 15 15 14 14 15 20 53 55 74 97 50 76 79 95 82 61 70 83 94 100 100 100 100 100 99 80 75 64 78 76 44 27 17 19 38 32 100 99 97 100 92
18 16 15 14 14 14 14 14 13 14 14 37 47 61 84 100 98 100 95 72 80 100 91 100 100 100 100 100 96 86 94 89 79 60 40 26 23 30 24 38 100 100 100 100 68
17 16 16 15 14 13 13 12 13 13 14 14 22 51 47 79 100 100 100 100 83 93 100 100 100 100 100 100 100 100 100 98 89 67 42 30 36 51 24 25 100 100 100 94 91
22 20 19 17 14 14 14 13 13 13 12 12 13 15 47 47 73 88 100 100 99 59 61 94 100 100 100 100 100 100 100 100 85 69 45 62 77 74 39 16 49 98 98 100 100
26 22 19 18 15 12 10 10 10 11 13 13 12 12 14 38 38 52 91 100 100 97 52 94 100 100 100 100 100 100 100 93 99 100 98 55 35 95 69 24 19 88 100 100 88
32 25 20 18 14 12 10 12 11 10 9 12 12 12 14 15 28 36 46 84 100 100 99 64 91 100 100 100 100 100 100 100 100 100 87 75 65 48 100 58 85 100 100 100 100
32 27 22 17 14 12 14 12 9 8 8 8 8 12 13 15 16 31 38 53 83 100 100 96 46 75 92 100 100 100 100 100 100 100 66 66 41 34 98 82 90 100 100 100 100
35 30 23 17 16 14 14 9 9 8 8 8 8 10 13 15 17 17 32 42 50 95 100 100 82 60 98 100 100 100 100 100 100 100 54 94 100 92 100 100 49 60 90 91 37
38 30 24 18 17 14 9 6 5 7 7 7 9 9 9 16 19 21 21 33 43 47 100 100 100 100 90 88 98 100 100 100 100 89 59 49 41 41 100 98 64 82 90 79 100
37 32 24 18 16 13 7 5 5 5 6 7 9 12 10 13 19 24 21 22 31 38 50 95 100 100 100 100 100 99 100 98 100 100 100 78 46 40 88 100 81 70 100 100 90
37 30 27 19 19 12 7 6 5 6 6 7 10 12 12 16 18 24 28 24 21 27 31 44 100 100 100 100 100 100 98 92 99 100 81 86 63 59 64 100 76 54 100 100 100
39 32 27 19 21 13 9 7 7 6 6 7 11 13 14 19 18 22 30 29 27 23 24 28 57 100 100 100 100 100 100 100 100 100 91 77 68 67 70 97 64 50 100 99 100
39 33 29 19 26 17 9 9 8 7 6 8 10 12 15 18 18 24 31 32 33 31 25 24 28 51 100 100 100 100 100 100 100 100 84 81 82 74 66 94 64 64 100 100 100
36 32 28 20 28 20 9 10 9 8 10 12 13 16 21 25 21 22 31 35 34 31 22 25 26 28 60 100 100 100 100 100 100 88 84 99 80 92 91 80 52 100 100 100 100
37 34 27 20 29 24 12 11 10 10 13 15 16 16 18 19 24 25 27 34 36 37 37 31 26 24 26 56 100 100 100 99 99 88 88 99 59 56 69 44 53 100 100 100 100
37 35 26 20 27 26 19 10 12 12 12 12 14 15 20 24 24 27 30 35 40 36 36 34 33 42 30 26 49 100 100 100 100 100 99 80 66 89 100 56 84 100 100 100 92
35 34 25 20 27 27 22 14 12 13 13 12 15 16 20 23 25 32 32 31 36 39 42 37 37 42 42 32 27 46 98 100 82 100 98 100 100 99 100 75 58 59 100 100 80
35 33 27 21 27 27 22 18 14 13 13 13 14 17 19 26 30 36 39 38 39 34 35 38 33 36 43 34 32 26 45 69 91 100 100 100 100 100 100 90 93 87 88 96 96
34 34 26 21 25 27 21 18 18 14 13 12 14 15 21 25 29 39 45 47 44 44 39 45 35 31 32 35 38 30 28 28 36 76 92 100 100 100 100 100 100 99 97 100 95
37 34 25 21 26 28 24 15 14 17 13 13 13 14 20 24 27 31 43 38 48 52 54 52 42 45 36 38 50 38 30 27 24 26 27 32 100 100 100 100 100 100 100 95 75
38 36 28 23 23 27 22 17 10 16 12 12 11 12 16 20 20 26 32 38 47 50 59 62 62 54 49 64 61 64 44 41 38 31 30 26 32 73 98 100 100 100 100 98 70
36 32 26 23 23 27 22 14 8 12 13 10 11 11 15 17 17 25 31 36 39 72 68 69 78 64 62 67 82 91 73 55 49 44 47 38 35 33 30 39 81 93 83 70 76
36 34 28 22 23 25 20 12 8 10 12 10 11 12 11 14 15 22 33 36 38 58 75 86 81 71 69 71 78 95 98 61 52 55 52 54 44 54 45 39 37 35 81 100 100
37 30 25 22 24 23 15 10 9 10 11 10 10 11 11 12 14 20 30 42 45 60 85 74 73 78 76 76 79 78 78 100 85 78 72 73 67 68 68 51 47 44 42 50 74
Wind_Speed
45 44 46 49 53 61 68 67 67 65 64 66 66 64 67 64 64 68 65 60 52 60 59 64 71 74 65 59 56 53 37 39 44 39 39 34 34 38 33 32 37 40 43 46 46
49 51 54 54 55 58 63 73 76 76 73 73 73 72 68 69 69 74 75 64 63 57 56 63 75 75 66 64 58 50 42 46 47 44 43 38 34 33 36 29 31 40 48 49 50
49 54 58 62 66 66 66 68 75 85 85 82 79 79 76 71 68 75 72 70 69 66 65 60 69 70 67 65 61 56 54 51 46 46 42 33 30 32 30 23 27 42 45 33 39
53 60 67 71 73 74 75 75 76 78 94 92 90 87 83 77 73 74 76 79 76 70 69 66 64 62 70 66 66 63 58 50 49 50 41 35 31 26 24 9 19 45 29 38 38
62 66 68 71 75 80 84 85 84 84 84 93 100 97 91 85 80 84 81 82 78 75 73 73 69 67 66 72 70 64 59 57 54 47 41 34 37 28 25 14 21 23 37 35 43
66 65 65 66 72 76 81 88 94 95 94 92 96 106 100 89 98 87 85 82 81 78 76 73 67 68 71 70 67 71 61 61 56 45 44 35 39 33 27 32 20 52 60 47 37
63 65 64 65 67 70 72 78 85 96 103 101 98 99 109 99 106 95 92 87 85 83 78 78 76 68 71 68 73 74 64 62 55 51 46 41 38 36 34 35 40 41 40 35 49
69 67 66 64 63 63 65 69 74 81 92 102 104 102 94 109 111 103 99 95 88 87 85 82 80 77 70 71 69 65 63 60 53 48 46 46 42 45 45 35 45 41 47 44 47
78 75 70 65 64 62 59 58 67 76 84 92 100 102 100 107 110 112 110 104 96 92 91 88 83 78 74 68 67 67 61 61 58 56 54 51 48 44 45 44 45 45 44 43 41
84 81 75 69 66 61 56 58 61 64 72 81 88 93 105 110 106 116 114 112 104 100 94 90 88 84 80 76 66 64 65 61 60 58 59 56 48 41 44 52 45 45 44 52 52
87 82 76 70 64 58 51 51 51 51 57 64 71 84 92 105 107 106 114 114 111 103 98 94 93 85 83 80 79 74 73 72 67 65 65 59 56 48 51 49 50 55 60 49 52
92 85 78 70 64 53 47 45 41 45 48 53 58 70 82 97 103 107 110 111 112 107 105 99 89 92 92 88 86 81 75 74 73 72 70 65 59 50 51 55 54 53 53 50 48
92 86 80 69 64 50 46 40 34 37 45 43 50 63 74 88 100 110 111 108 105 106 104 100 94 94 94 91 91 87 78 80 76 76 74 74 62 56 57 58 57 55 61 53 51
95 86 80 69 63 50 43 35 29 31 39 39 46 60 67 82 94 107 108 106 105 100 100 102 97 97 96 93 89 84 86 86 84 84 77 79 66 63 62 58 56 56 63 60 55
95 87 76 66 61 51 40 32 28 28 31 39 47 56 63 76 92 100 109 106 99 99 101 94 98 94 95 89 90 83 87 85 87 84 82 81 75 65 66 57 55 60 58 56 54
96 89 77 64 56 53 38 29 28 25 25 33 45 48 58 75 87 95 104 105 103 101 98 99 98 98 89 88 88 88 92 90 89 90 86 77 73 70 66 56 58 62 56 56 55
94 88 75 63 53 51 40 28 26 22 21 25 36 48 56 69 80 91 100 105 103 101 98 98 97 94 97 90 86 89 90 89 89 87 72 71 72 69 68 65 63 60 57 53 51
95 88 75 61 49 46 42 29 24 18 17 27 40 52 59 66 74 84 95 101 104 98 98 95 99 94 90 94 87 82 87 86 82 79 74 76 67 61 69 59 61 62 60 58 52
93 86 75 62 48 43 40 32 24 20 25 31 38 47 56 62 71 80 87 93 97 100 99 97 92 95 96 91 98 93 83 78 85 87 83 76 68 67 66 58 57 52 56 59 55
93 85 75 63 51 42 38 35 25 22 25 28 35 42 52 59 67 74 82 92 97 100 99 98 97 100 96 95 96 99 88 89 77 73 73 73 69 63 64 64 58 60 61 63 56
90 83 73 62 51 42 35 31 29 24 26 28 35 41 51 57 63 70 78 86 90 96 98 99 104 100 102 100 92 89 96 98 90 82 72 68 69 70 71 72 64 61 59 58 51
90 86 73 63 56 46 40 27 29 29 27 30 35 40 50 59 65 69 78 84 88 89 91 95 98 101 100 94 92 90 90 87 89 81 77 75 68 66 60 62 64 63 62 60 61
93 85 71 64 57 50 44 33 26 30 30 32 34 41 49 60 65 72 83 83 86 88 88 91 95 93 96 95 92 92 87 83 84 83 82 80 76 74 67 64 63 62 64 64 61
91 82 76 68 61 51 45 38 31 25 31 33 36 40 48 58 64 72 75 80 80 85 86 87 88 92 92 87 88 87 86 85 84 83 78 76 74 78 77 76 73 69 66 62 64
94 82 74 66 61 54 48 41 33 24 34 32 34 37 44 53 58 67 72 79 79 83 82 85 88 88 88 89 90 88 90 89 86 78 81 71 72 72 69 71 73 73 73 73 67
93 84 79 70 61 56 48 43 35 26 30 29 32 38 45 50 54 62 71 78 78 82 84 83 85 86 86 87 90 93 92 93 86 83 77 75 73 75 72 68 66 66 67 65 55
91 83 76 69 62 56 49 42 33 26 27 31 32 36 43 44 51 60 69 77 77 80 82 82 83 84 85 89 90 88 86 85 85 83 78 80 75 76 74 72 70 68 68 68 66
Wind_Direction
275 270 265 262 258 250 246 246 244 241 241 237 237 234 239 239 236 234 232 230 232 228 229 240 238 231 227 227 225 227 233 238 234 236 242 256 261 261 272 266 271 276 272 267 268
275 272 268 262 257 256 251 246 242 241 240 238 238 237 236 238 237 233 235 229 233 228 227 238 235 229 228 226 226 227 232 230 230 237 247 256 260 268 275 271 277 275 277 277 273
275 271 265 260 259 255 251 249 246 241 240 236 237 237 236 235 235 234 230 231 231 232 232 234 234 235 227 226 225 226 227 226 231 240 246 250 265 271 278 288 292 276 282 273 294
284 276 268 264 260 257 254 250 248 244 240 238 235 232 233 233 232 236 232 230 232 230 231 234 236 234 228 227 223 226 228 226 231 238 241 255 262 261 268 328 242 272 281 281 284
290 286 281 274 265 259 255 252 249 245 243 240 237 233 228 228 229 229 232 230 230 231 231 232 233 235 237 231 227 228 229 226 231 237 248 251 255 250 248 222 213 236 257 279 292
300 294 289 280 273 266 260 253 249 247 243 239 237 234 231 225 231 226 229 229 229 229 232 233 232 234 236 237 235 229 229 225 232 239 244 250 244 240 247 242 247 240 251 262 276
312 305 296 288 280 273 267 257 251 246 243 241 237 235 231 230 230 224 227 226 229 230 231 233 233 231 236 237 235 229 229 225 231 241 243 241 247 236 252 244 254 233 239 265 259
322 317 308 299 292 285 274 264 256 249 244 240 237 232 229 230 229 228 227 228 226 230 229 229 232 228 230 236 236 238 237 230 233 238 244 238 237 245 252 255 259 250 246 263 260
330 326 319 309 302 294 285 273 260 249 241 237 233 230 225 229 228 227 224 228 226 225 230 228 229 231 227 230 236 238 237 230 231 238 241 241 236 238 251 249 261 251 248 252 265
332 329 325 316 307 302 293 277 265 256 249 241 236 229 224 224 226 226 225 225 226 225 226 230 230 230 232 231 230 235 236 231 231 236 241 244 244 238 247 241 246 241 252 261 259
336 332 329 321 313 309 296 282 274 263 251 244 237 231 225 224 222 225 224 225 226 225 225 227 230 231 232 230 229 227 228 231 232 234 238 238 241 240 249 243 245 255 255 247 265
337 333 333 325 318 315 302 290 276 262 252 241 234 228 223 222 221 221 223 223 225 225 224 226 227 228 230 230 230 230 232 235 235 237 241 240 239 238 247 247 251 261 254 258 269
339 336 334 327 322 320 310 298 279 259 248 238 227 225 217 219 218 218 220 219 221 223 225 224 224 226 227 229 232 232 233 234 234 235 236 241 242 244 249 242 244 258 254 254 256
340 337 335 330 325 325 315 301 285 261 246 232 226 222 216 214 216 217 217 219 218 220 222 222 221 226 227 227 230 233 234 235 235 237 240 245 249 249 244 240 244 247 248 248 254
341 339 337 332 326 326 320 305 289 266 248 231 224 219 214 212 214 215 215 217 218 218 221 221 223 222 228 229 229 229 232 235 238 240 242 246 247 243 238 237 243 249 250 249 253
340 340 339 335 329 325 322 308 293 278 256 236 228 222 217 212 212 212 214 216 216 216 216 217 220 220 218 224 227 228 231 233 236 241 242 244 245 247 240 239 248 250 247 243 248
340 340 339 336 330 327 325 314 298 288 264 245 228 218 214 214 214 213 212 214 218 219 218 217 219 220 220 219 223 227 231 234 238 240 244 241 243 244 240 239 244 246 249 246 251
339 340 339 337 332 327 324 316 301 282 257 235 222 216 216 214 211 215 215 215 216 216 218 220 219 221 223 222 221 225 231 235 238 241 241 240 242 245 245 237 236 241 242 241 249
339 341 338 336 333 330 324 314 301 280 249 232 230 219 216 215 214 211 213 216 217 217 217 219 219 219 220 221 222 223 225 231 232 233 235 238 239 235 238 235 235 235 241 247 248
340 339 338 337 334 330 325 314 299 277 259 244 232 224 217 216 215 214 214 214 214 215 215 216 218 219 219 219 222 223 229 227 228 232 236 236 233 231 236 241 235 238 234 238 243
339 339 337 335 333 328 324 318 300 277 261 247 236 226 217 215 216 214 214 216 217 218 218 217 217 218 219 218 222 223 228 233 232 227 232 234 231 230 236 241 239 227 231 243 248
339 338 337 334 333 329 323 317 302 281 260 249 238 229 220 216 213 213 216 216 216 218 219 218 221 221 220 219 221 221 225 229 233 234 236 234 230 229 229 235 234 238 236 240 251
338 337 336 333 332 327 323 315 300 284 262 248 238 229 222 218 215 214 216 216 215 216 216 219 220 222 224 221 220 225 226 229 229 230 232 233 231 232 230 236 236 234 240 247 252
338 337 335 333 331 325 319 314 300 282 265 249 241 234 224 224 218 216 219 219 217 218 216 217 220 222 223 224 222 227 226 228 231 231 233 234 235 236 238 239 243 244 247 246 250
337 336 335 330 329 324 319 312 302 279 266 251 242 238 231 227 226 219 216 221 217 217 219 218 220 220 222 223 222 222 228 227 229 230 233 233 235 240 239 241 243 247 251 253 252
337 336 334 329 328 323 318 309 303 284 269 258 244 235 232 227 226 222 218 222 219 218 218 218 221 220 222 223 224 223 227 230 228 229 230 234 234 241 240 239 242 243 243 242 240
338 335 333 329 326 322 316 308 300 286 268 260 246 233 235 230 225 224 219 221 220 219 218 220 219 221 219 222 224 225 226 231 231 232 232 234 235 236 240 239 241 243 243 244 241